Terug naar catalogus

STARLINK-32739

ActiefCommunicatieVLEO
NORAD 62498·PAYLOAD·🇺🇸 United States

Gelanceerd Jan 6, 2025 vanaf Cape Canaveral Space Force Station

Loading…

Volgende Passages (komende 24 uur)

TLE

VersSource: CelesTrak SupGP

Epoch: Sep 15, 2026, 02:33 UTC

1 62498C 25003M   26258.10673611  .00030651  00000+0  11101-2 0  2585
2 62498  43.0004 299.2244 0001453 267.0321 345.2173 15.27565398    15

Volg STARLINK-32739 in realtime met AllMySat

Download on the App Store